Weather History for KBTA - June, 2013

Change the Weather History Date:

Wednesday, June 19, 2013

  Actual Average (KOMA) Record (KOMA)
Temperature  
Mean Temperature 74 °F 73 °F  
Max Temperature 86 °F 84 °F 102 °F (1953)
Min Temperature 64 °F 62 °F 47 °F (1976)
Degree Days  
Heating Degree Days 0 0  
Month to date heating degree days 15  
Since 1 June heating degree days 15  
Since 1 July heating degree days 6165  
Cooling Degree Days 10 9  
Month to date cooling degree days 120  
Year to date cooling degree days 202  
Since 1 June cooling degree days 120  
Growing Degree Days 24 (Base 50)    
Moisture  
Dew Point 60 °F    
Average Humidity 61    
Maximum Humidity 82    
Minimum Humidity 41    
Precipitation  
Precipitation 0.00 in 0.13 in 1.62 in (1942)
Month to date precipitation 2.77  
Year to date precipitation 14.05  
Snow  
Snow 0.00 in 0.00 in - ()
Month to date snowfall 0.0  
Since 1 July snowfall 26.4  
Snow Depth -    
Sea Level Pressure  
Sea Level Pressure 29.97 in    
Wind  
Wind Speed 6 mph (SE)    
Max Wind Speed 16 mph    
Max Gust Speed 23 mph    
Visibility 10 miles    
Events      
T = Trace of Precipitation, MM = Missing Value Source: NWS Daily Summary

Daily Weather History Graph

Daily Weather History Graph

Search for Another Location

Airport or City:

Trip Planner

Search our weather history database for the weather conditions in past years. The results will help you decide how hot, cold, wet, or windy it might be!

Date:

Astronomy

Jun. 19, 2013 Rise Set
Actual Time 5:50 AM CDT 9:01 PM CDT
Civil Twilight 5:16 AM CDT 9:35 PM CDT
Nautical Twilight 4:33 AM CDT 10:18 PM CDT
Astronomical Twilight 3:40 AM CDT 11:10 PM CDT
Moon 4:53 PM CDT (6/19) 2:38 AM CDT (6/19)
Length of Visible Light 16h 18m
Length of Day
15h 10m
Waxing Gibbous, 80% of the Moon is Illuminated
Jun 19
Waxing Gibbous
Jun 23
Full
Jun 29
Last Quarter
Jul 8
New
Jul 15
First Quarter

Hourly Weather History & Observations

Time (CDT) Temp. Heat Index Dew Point Humidity Pressure Visibility Wind Dir Wind Speed Gust Speed Precip Events Conditions
12:15 AM 67.5 °F - 57.7 °F 71% 30.00 in 10.0 mi Calm Calm - N/A   Clear
12:35 AM 68.4 °F - 55.0 °F 62% 30.01 in 10.0 mi Calm Calm - N/A   Clear
12:55 AM 69.6 °F - 54.3 °F 58% 30.01 in 10.0 mi Calm Calm - N/A   Clear
1:15 AM 69.4 °F - 54.7 °F 59% 30.01 in 10.0 mi South 3.5 mph - N/A   Scattered Clouds
1:35 AM 64.8 °F - 57.2 °F 76% 30.00 in 10.0 mi South 3.5 mph - N/A   Clear
1:55 AM 66.2 °F - 56.3 °F 70% 30.00 in 10.0 mi SSE 3.5 mph - N/A   Clear
2:15 AM 65.3 °F - 57.0 °F 75% 30.00 in 10.0 mi Calm Calm - N/A   Clear
2:35 AM 66.2 °F - 55.8 °F 69% 30.00 in 10.0 mi SSE 4.6 mph - N/A   Clear
2:55 AM 65.5 °F - 56.5 °F 73% 30.00 in 10.0 mi SSE 4.6 mph - N/A   Clear
3:15 AM 66.9 °F - 56.3 °F 69% 30.00 in 10.0 mi SSE 3.5 mph - N/A   Scattered Clouds
3:35 AM 67.3 °F - 56.5 °F 68% 30.00 in 10.0 mi ESE 3.5 mph - N/A   Mostly Cloudy
3:55 AM 66.2 °F - 57.6 °F 74% 29.99 in 10.0 mi ESE 4.6 mph - N/A   Scattered Clouds
4:15 AM 65.5 °F - 57.7 °F 76% 29.99 in 10.0 mi SE 4.6 mph - N/A   Scattered Clouds
4:35 AM 64.2 °F - 58.1 °F 80% 30.00 in 10.0 mi SSE 5.8 mph - N/A   Scattered Clouds
4:55 AM 64.6 °F - 58.5 °F 80% 30.00 in 10.0 mi SSE 6.9 mph - N/A   Scattered Clouds
5:15 AM 64.8 °F - 58.6 °F 81% 30.00 in 10.0 mi SSE 3.5 mph - N/A   Scattered Clouds
5:35 AM 65.1 °F - 59.0 °F 81% 30.01 in 10.0 mi SSE 3.5 mph - N/A   Mostly Cloudy
5:55 AM 64.8 °F - 59.0 °F 82% 30.01 in 10.0 mi SE 4.6 mph - N/A   Mostly Cloudy
6:15 AM 65.1 °F - 59.0 °F 81% 30.01 in 10.0 mi SE 5.8 mph - N/A   Scattered Clouds
6:35 AM 65.5 °F - 59.2 °F 80% 30.01 in 10.0 mi ESE 4.6 mph - N/A   Scattered Clouds
6:55 AM 66.4 °F - 59.0 °F 77% 30.01 in 10.0 mi SE 6.9 mph - N/A   Clear
7:15 AM 66.7 °F - 59.2 °F 77% 30.02 in 10.0 mi SE 4.6 mph - N/A   Clear
7:35 AM 66.9 °F - 59.9 °F 78% 30.02 in 10.0 mi SE 4.6 mph - N/A   Clear
7:55 AM 67.1 °F - 59.9 °F 78% 30.02 in 10.0 mi SE 4.6 mph - N/A   Scattered Clouds
8:15 AM 67.8 °F - 60.6 °F 78% 30.03 in 10.0 mi SSE 6.9 mph - N/A   Scattered Clouds
8:35 AM 69.6 °F - 61.2 °F 74% 30.03 in 10.0 mi SSE 6.9 mph - N/A   Scattered Clouds
8:55 AM 71.2 °F - 61.7 °F 72% 30.02 in 10.0 mi SE 9.2 mph - N/A   Scattered Clouds
9:15 AM 72.5 °F - 61.7 °F 69% 30.01 in 10.0 mi SE 10.4 mph - N/A   Clear
9:35 AM 74.5 °F - 61.7 °F 64% 30.01 in 10.0 mi SSE 8.1 mph - N/A   Clear
9:55 AM 75.7 °F - 61.2 °F 60% 30.01 in 10.0 mi SE 13.8 mph - N/A   Clear
10:15 AM 76.5 °F - 61.5 °F 60% 30.00 in 10.0 mi SE 12.7 mph - N/A   Clear
10:35 AM 77.0 °F - 62.2 °F 60% 30.00 in 10.0 mi SSE 12.7 mph - N/A   Clear
10:55 AM 78.1 °F - 63.0 °F 60% 30.00 in 10.0 mi SSE 15.0 mph 20.7 mph N/A   Clear
11:15 AM 77.5 °F - 62.4 °F 59% 30.00 in 10.0 mi SSE 16.1 mph 20.7 mph N/A   Scattered Clouds
11:35 AM 77.0 °F - 61.9 °F 59% 30.00 in 10.0 mi SSE 13.8 mph 18.4 mph N/A   Overcast
11:55 AM 78.1 °F - 61.7 °F 57% 30.00 in 10.0 mi SSE 15.0 mph 21.9 mph N/A   Overcast
12:15 PM 79.7 °F - 62.2 °F 55% 30.00 in 10.0 mi SSE 15.0 mph 19.6 mph N/A   Mostly Cloudy
1:55 PM 82.4 °F 83.4 °F 62.8 °F 51% 29.97 in 10.0 mi SSE 12.7 mph 19.6 mph N/A   Scattered Clouds
2:15 PM 83.1 °F 84.2 °F 63.1 °F 51% 29.96 in 10.0 mi SSE 12.7 mph 23.0 mph N/A   Clear
2:35 PM 83.5 °F 84.7 °F 63.7 °F 51% 29.96 in 10.0 mi SE 15.0 mph 18.4 mph N/A   Scattered Clouds
2:55 PM 83.1 °F 84.0 °F 63.0 °F 50% 29.96 in 10.0 mi SSE 11.5 mph 20.7 mph N/A   Scattered Clouds
3:15 PM 83.8 °F 84.7 °F 62.6 °F 49% 29.96 in 10.0 mi SSE 13.8 mph - N/A   Scattered Clouds
3:35 PM 83.5 °F 84.1 °F 61.9 °F 48% 29.96 in 10.0 mi SSE 13.8 mph 23.0 mph N/A   Scattered Clouds
3:55 PM 83.7 °F 84.5 °F 62.6 °F 49% 29.96 in 10.0 mi SE 11.5 mph 18.4 mph N/A   Scattered Clouds
4:15 PM 84.2 °F 84.8 °F 61.9 °F 47% 29.95 in 10.0 mi SE 15.0 mph 20.7 mph N/A   Clear
4:35 PM 84.7 °F 84.6 °F 60.3 °F 43% 29.94 in 10.0 mi SE 13.8 mph 20.7 mph N/A   Clear
4:55 PM 85.6 °F 85.2 °F 59.4 °F 41% 29.93 in 10.0 mi SE 13.8 mph 21.9 mph N/A   Clear
5:15 PM 85.1 °F 84.6 °F 59.0 °F 41% 29.93 in 10.0 mi SE 11.5 mph 21.9 mph N/A   Scattered Clouds
5:35 PM 84.9 °F 85.0 °F 60.6 °F 44% 29.93 in 10.0 mi SE 12.7 mph 21.9 mph N/A   Mostly Cloudy
5:55 PM 83.8 °F 84.1 °F 60.8 °F 46% 29.92 in 10.0 mi SSE 15.0 mph - N/A   Mostly Cloudy
6:15 PM 84.2 °F 84.6 °F 61.5 °F 46% 29.92 in 10.0 mi SSE 16.1 mph 21.9 mph N/A   Scattered Clouds
6:35 PM 84.4 °F 84.6 °F 61.2 °F 45% 29.91 in 10.0 mi SE 12.7 mph 23.0 mph N/A   Scattered Clouds
6:55 PM 84.4 °F 84.4 °F 60.3 °F 44% 29.91 in 10.0 mi SE 13.8 mph 20.7 mph N/A   Clear
7:15 PM 82.9 °F 83.0 °F 59.7 °F 45% 29.91 in 10.0 mi SSE 10.4 mph - N/A   Clear
7:35 PM 83.8 °F 83.6 °F 59.0 °F 43% 29.92 in 10.0 mi SSE 11.5 mph 18.4 mph N/A   Clear
7:55 PM 83.3 °F 82.9 °F 58.3 °F 42% 29.91 in 10.0 mi SSE 10.4 mph 16.1 mph N/A   Clear
8:15 PM 82.4 °F 82.3 °F 58.6 °F 44% 29.91 in 10.0 mi SSE 10.4 mph 16.1 mph N/A   Clear
8:35 PM 81.5 °F 81.7 °F 58.8 °F 46% 29.91 in 10.0 mi SSE 11.5 mph - N/A   Clear
8:55 PM 80.4 °F 81.1 °F 59.4 °F 49% 29.91 in 10.0 mi SSE 9.2 mph - N/A   Clear
9:15 PM 79.3 °F - 59.9 °F 51% 29.92 in 10.0 mi SE 8.1 mph - N/A   Clear
9:35 PM 78.8 °F - 59.9 °F 52% 29.92 in 10.0 mi SE 8.1 mph - N/A   Clear
9:55 PM 77.9 °F - 59.9 °F 54% 29.93 in 10.0 mi SE 8.1 mph - N/A   Clear
10:15 PM 76.6 °F - 60.4 °F 57% 29.94 in 10.0 mi SE 8.1 mph - N/A   Clear
10:35 PM 76.8 °F - 61.3 °F 59% 29.95 in 10.0 mi SE 9.2 mph - N/A   Clear
10:55 PM 76.8 °F - 61.7 °F 59% 29.96 in 10.0 mi SE 9.2 mph - N/A   Clear
11:15 PM 76.3 °F - 62.1 °F 61% 29.96 in 10.0 mi SE 10.4 mph - N/A   Clear
11:35 PM 76.3 °F - 62.1 °F 61% 29.96 in 10.0 mi SSE 10.4 mph 16.1 mph N/A   Clear
11:55 PM 76.1 °F - 62.4 °F 62% 29.96 in 10.0 mi SSE 10.4 mph - N/A   Clear